Wind_Speed
12 11 11 10 9 8 8 8 7 7 7 6 5 5 5 5 5 4 5 5 5 5 5 6 6 5 5 5 5 5 4 4 4 4 4 2 4 6 5 5 6 7 7 8 9 10 10 11 11 11 11 11 11 11 11 10 10 10 10 10 10 9 9 9 10 10 10 10 11 11 11 11 11 12 12 13 13 14 14 14 15 15 16 18 20
12 12 12 11 9 9 9 8 7 6 6 6 5 4 4 4 4 4 4 4 4 5 5 5 5 5 5 5 5 5 4 4 5 4 4 3 3 7 7 6 7 7 8 9 9 10 10 10 10 11 11 11 11 11 10 10 10 10 10 10 10 10 11 11 11 11 11 11 11 11 11 11 12 12 12 13 13 14 14 14 14 15 15 17 18
12 11 11 10 9 9 8 8 7 6 6 5 5 5 5 4 5 5 4 4 4 4 5 5 5 5 5 5 4 4 4 3 4 5 5 4 3 6 8 7 7 8 9 9 9 9 9 10 10 10 10 10 10 10 10 10 10 10 10 10 11 11 11 10 11 11 10 11 11 10 10 11 12 12 12 13 14 14 14 14 14 14 15 16 18
12 10 9 9 8 8 8 7 7 5 5 6 7 7 6 5 6 6 4 3 4 4 4 5 4 5 5 4 4 4 3 3 4 5 5 5 4 4 7 7 8 7 8 8 8 8 8 9 9 9 10 10 10 10 10 10 10 10 10 10 10 9 9 9 9 9 9 9 10 10 10 11 12 12 13 13 13 14 13 14 14 14 14 15 17
12 10 8 8 8 7 8 7 6 6 7 9 8 8 6 5 6 7 5 3 4 3 4 5 5 4 5 4 4 4 4 4 5 5 4 5 5 3 4 5 7 7 7 8 7 8 8 8 8 9 9 9 9 10 10 10 10 9 9 9 9 9 8 8 8 8 9 9 10 10 10 11 12 12 12 12 12 13 13 14 14 15 15 16 17
13 12 7 7 7 7 7 6 6 7 7 9 8 6 6 5 7 9 6 4 4 4 4 5 4 4 4 4 4 3 3 4 4 4 4 4 3 3 3 4 6 7 7 9 9 9 8 8 8 9 9 9 10 10 10 9 9 9 9 10 9 9 9 9 9 9 10 10 10 10 11 11 11 11 11 11 12 13 14 15 15 15 15 16 17
12 13 8 6 6 6 6 6 7 6 5 9 7 5 5 5 7 10 7 5 4 4 5 4 3 3 3 4 4 3 4 4 5 4 5 5 2 2 3 3 3 5 6 9 10 10 9 8 9 9 9 10 10 10 10 10 10 11 11 11 12 12 12 11 11 11 12 12 12 12 12 12 12 12 12 12 12 13 15 15 16 16 16 17 18
12 13 9 6 6 5 5 6 7 6 5 8 7 5 7 6 7 10 8 6 4 4 5 4 4 4 3 4 3 4 4 4 4 5 6 4 2 3 5 5 6 7 8 7 9 10 11 10 10 11 10 10 10 10 11 12 12 12 13 14 14 14 14 14 14 14 14 14 14 14 13 13 13 14 13 13 13 15 16 16 17 17 17 18 20
11 14 9 5 6 4 5 6 5 5 6 7 5 5 7 6 6 8 6 5 4 4 3 3 4 3 3 4 3 3 3 3 4 6 6 3 1 3 6 6 8 10 8 6 6 8 10 12 13 13 12 10 9 10 12 13 14 15 16 16 16 16 17 17 17 17 17 17 16 16 15 14 15 15 15 15 15 16 17 17 18 18 19 20 22
11 14 11 6 6 5 4 5 4 5 6 4 3 4 5 5 4 6 5 5 4 4 3 3 3 3 3 3 2 3 4 4 5 5 5 3 3 5 5 6 8 9 6 5 6 9 9 12 14 14 14 12 9 10 12 14 15 16 17 17 17 17 18 17 18 18 18 18 18 18 16 16 16 15 15 16 17 17 18 18 19 20 21 22 24
9 12 11 6 5 5 5 5 4 5 8 4 3 3 3 4 3 4 5 4 4 4 3 2 2 3 4 4 3 4 4 4 4 4 6 5 3 3 5 9 7 7 10 7 5 8 8 10 13 12 14 14 12 11 12 14 15 16 17 17 18 18 18 18 18 18 19 19 19 19 18 17 16 16 16 17 17 17 18 19 20 22 23 24 25
8 9 11 8 5 4 4 5 3 4 8 5 2 1 3 4 3 5 5 3 4 3 2 3 2 3 4 4 4 5 5 5 4 4 6 6 4 3 2 7 6 3 7 6 4 7 11 11 10 10 11 14 15 14 14 15 14 15 16 17 18 18 18 18 19 19 19 19 19 19 19 18 17 16 17 17 18 19 19 20 21 22 25 26 27
8 8 8 9 8 5 5 6 2 3 6 4 2 2 3 4 3 6 5 3 3 3 2 3 3 4 4 4 5 5 4 5 5 4 6 6 5 6 3 5 8 6 4 6 8 8 11 11 9 9 10 11 14 15 17 18 16 16 17 18 18 18 19 19 19 19 19 19 19 19 19 18 18 17 17 18 19 20 21 21 22 23 25 27 28
7 7 7 7 7 5 6 7 4 3 4 3 3 3 4 4 4 4 4 3 4 4 3 3 2 3 4 5 5 4 2 3 4 4 6 7 5 5 3 5 7 5 5 8 11 9 7 8 8 9 11 9 9 11 13 15 17 18 19 19 19 19 19 19 19 19 19 19 18 18 18 18 18 18 18 18 19 20 22 23 23 23 25 27 29
7 6 6 5 6 5 3 4 4 3 3 3 2 2 3 4 4 3 4 5 4 4 3 3 5 3 3 5 5 4 4 3 5 5 5 6 5 5 5 5 4 4 5 5 8 8 5 6 7 8 10 9 8 8 9 11 15 18 20 21 20 20 20 19 19 19 18 19 18 18 18 18 18 18 18 18 19 20 22 24 24 23 24 27 29
6 5 4 5 6 6 3 3 3 3 2 3 3 3 3 2 3 3 4 5 4 4 3 3 6 4 1 2 3 4 4 3 5 6 6 6 6 6 7 7 5 5 5 5 7 6 5 7 8 8 10 10 9 9 11 13 14 16 19 21 21 21 20 19 19 19 19 19 19 18 18 18 18 18 19 19 19 20 21 23 25 24 24 26 29
6 6 5 6 6 5 5 3 2 3 2 2 3 2 1 1 3 4 4 3 3 4 3 3 4 2 2 3 5 6 4 3 4 4 4 7 6 4 5 6 5 4 5 5 7 5 5 8 9 8 9 10 9 9 11 13 13 14 18 22 23 22 20 19 19 19 19 19 19 18 18 17 18 18 19 19 19 19 21 23 24 24 23 25 28
7 7 5 5 5 5 5 4 1 2 3 2 1 1 2 1 1 3 2 2 3 3 3 4 3 2 3 4 4 4 3 1 1 3 3 4 4 3 3 4 3 3 4 5 5 6 4 5 8 8 9 9 8 8 8 8 11 12 15 20 23 22 20 19 19 19 19 19 19 18 17 17 18 18 18 18 18 19 20 21 23 24 23 24 27
6 7 7 5 5 4 5 4 2 2 2 4 2 1 2 2 2 2 2 3 3 2 3 5 3 2 3 2 1 1 2 1 1 3 3 1 2 3 3 4 3 3 5 5 3 4 3 2 4 6 9 10 7 8 8 6 10 14 16 19 22 21 19 18 18 18 18 18 18 16 16 16 17 18 18 18 19 19 20 21 22 23 23 24 25
7 7 6 5 5 5 4 5 4 3 3 2 2 2 3 3 3 2 2 3 2 1 3 4 2 2 2 1 1 1 0 2 1 1 2 1 1 2 2 3 4 3 3 4 2 4 3 2 4 4 9 12 10 9 10 10 12 15 17 20 21 21 19 17 17 17 17 18 17 15 15 16 17 18 18 19 19 20 20 21 22 23 23 23 24
8 6 5 5 5 5 4 5 5 3 2 2 2 3 4 4 3 2 2 2 1 1 3 3 2 2 1 0 1 1 1 1 1 1 1 2 0 1 2 1 3 3 1 2 2 4 3 3 6 5 6 14 14 9 10 12 11 13 18 20 20 20 18 16 16 15 16 17 15 14 15 16 17 18 18 19 20 20 21 22 22 22 23 23 24
6 5 5 5 5 5 4 3 3 3 3 4 4 3 3 2 2 2 2 2 1 1 1 1 1 1 1 1 1 1 1 2 2 1 0 1 1 2 2 1 1 2 1 1 1 5 3 2 4 3 5 12 14 11 11 12 12 14 17 19 19 18 16 16 16 15 16 17 15 13 15 17 18 18 19 19 20 20 21 22 23 23 23 22 23
5 4 4 5 5 6 4 2 4 4 4 4 3 3 2 1 2 3 2 2 2 1 1 1 1 0 0 2 1 1 2 2 3 3 2 2 2 0 1 2 0 1 0 1 2 3 3 4 4 5 9 11 13 14 11 11 15 16 17 18 17 16 16 16 16 16 16 17 16 15 15 17 19 19 20 20 21 21 21 22 23 23 23 23 23
6 4 4 6 5 6 6 5 6 4 4 4 3 5 5 2 3 3 2 2 2 2 2 1 2 1 1 2 2 2 2 2 3 3 3 2 2 2 2 4 3 1 1 1 3 3 4 6 3 3 9 9 11 15 13 11 14 16 17 17 15 15 16 17 16 16 17 17 17 16 17 18 19 20 21 21 22 22 22 22 23 23 23 23 23
6 5 5 6 5 5 6 7 7 6 5 5 5 7 7 3 3 2 2 4 3 3 2 1 3 3 2 3 3 3 2 2 2 2 3 3 1 2 2 3 4 4 3 3 3 3 6 8 4 4 7 8 10 15 15 14 13 14 16 16 15 16 17 17 17 17 17 18 18 18 18 19 20 20 21 22 22 23 23 23 23 23 23 23 23
6 5 5 6 4 5 5 5 5 5 5 5 5 6 6 5 4 3 3 5 4 3 2 2 4 3 3 4 4 4 2 2 3 3 4 4 2 2 3 3 4 4 4 4 3 4 5 7 8 5 5 8 10 10 11 14 14 13 16 15 13 16 17 17 18 18 18 18 19 19 20 20 21 21 22 22 23 23 23 23 23 23 23 23 23
6 6 6 7 7 6 5 4 4 4 4 5 4 4 5 5 4 4 4 4 4 3 2 3 4 4 4 4 4 4 3 3 4 4 3 3 3 4 3 4 4 3 3 4 4 4 2 2 7 6 4 9 13 9 9 13 13 14 17 14 11 15 17 18 19 19 19 20 20 21 21 22 22 22 23 23 23 23 23 23 23 23 22 22 22
6 6 6 7 7 6 4 3 4 4 4 5 5 5 6 5 4 5 4 2 5 4 3 3 4 4 4 4 4 4 4 4 5 4 4 4 4 5 4 4 5 4 4 4 3 5 4 3 6 7 7 10 13 10 9 11 12 15 17 13 10 12 16 18 19 19 21 22 22 23 23 24 24 24 23 23 23 22 22 22 22 22 21 21 21
6 6 6 6 5 5 5 5 6 4 5 5 5 6 6 4 5 6 4 4 7 6 3 3 4 4 4 4 4 4 4 5 4 5 6 5 4 4 4 4 5 5 6 6 4 5 6 6 7 8 8 9 10 10 8 10 13 14 15 13 10 11 15 17 18 20 24 24 25 25 25 25 25 24 24 23 22 22 22 22 22 22 21 20 20
7 5 6 6 6 6 6 8 7 6 5 5 6 6 6 5 6 6 5 5 7 5 4 4 4 4 4 4 4 4 4 5 4 4 6 5 3 4 4 5 5 5 6 7 7 7 7 7 7 8 9 9 9 10 9 10 13 14 14 13 11 13 16 17 16 20 23 24 26 27 26 27 26 25 24 23 22 22 22 23 22 22 21 20 20
8 8 8 6 6 6 6 7 8 6 6 5 6 6 5 5 4 5 6 6 6 5 5 4 4 5 5 5 5 4 4 5 4 4 5 5 4 3 3 4 5 5 6 8 8 8 7 8 9 9 10 11 10 10 10 10 12 15 15 13 13 16 18 17 17 20 22 24 25 25 27 28 27 25 25 24 23 23 23 24 23 22 21 19 19
9 9 9 8 7 7 6 6 6 6 6 6 6 6 5 5 5 7 9 8 6 5 5 5 5 5 6 6 5 5 5 5 4 4 5 5 4 4 4 5 5 4 6 8 9 9 8 8 10 10 11 11 11 10 10 11 12 14 15 13 15 17 18 16 17 20 22 23 23 24 28 29 26 25 24 23 23 24 24 24 23 22 21 19 18
10 10 9 9 9 8 7 7 7 7 8 8 8 8 7 6 7 8 9 7 6 6 6 7 6 6 7 7 6 6 6 5 4 5 5 5 5 6 7 8 6 4 6 7 8 10 10 8 9 11 10 11 11 10 10 11 11 13 14 14 15 16 16 16 17 19 22 22 21 24 28 28 28 27 25 23 23 24 24 23 22 21 19 18 17
11 11 10 10 10 10 9 8 8 8 10 10 9 8 8 7 6 7 7 7 6 6 7 7 7 6 7 7 6 5 5 5 5 5 5 6 6 7 7 7 6 6 7 7 8 10 11 10 10 11 10 11 11 11 11 12 12 14 15 15 16 16 16 17 17 20 21 21 23 25 26 26 28 28 27 27 26 25 24 22 21 19 18 17 17
12 11 11 10 11 11 10 10 11 11 11 11 9 8 10 10 8 7 7 8 7 6 7 6 6 6 6 7 6 5 5 6 6 5 5 5 6 6 6 6 7 7 7 7 8 10 11 11 11 11 11 12 12 12 11 12 13 14 15 16 17 17 17 17 18 19 20 22 24 24 23 25 27 26 27 29 28 25 23 22 19 18 17 16 16
12 12 12 11 11 13 12 12 14 13 12 11 9 9 10 10 9 8 9 9 9 8 7 7 7 6 7 7 6 6 6 7 7 6 6 5 5 5 6 6 6 7 7 7 8 10 12 13 13 13 13 13 13 12 12 13 14 14 15 17 17 17 18 18 18 18 20 22 22 22 23 24 23 24 28 30 28 25 22 21 19 16 15 15 15
13 12 13 12 12 14 14 13 13 13 12 12 11 10 10 10 9 9 9 10 10 9 9 9 9 9 9 8 7 7 7 7 7 6 5 6 5 5 6 6 6 6 7 8 9 10 12 13 15 15 14 14 13 13 13 14 15 15 17 18 17 17 18 18 19 19 19 20 20 22 22 21 21 25 28 28 28 25 22 21 19 16 14 14 14
14 13 13 13 13 14 14 13 12 13 13 13 13 12 11 10 10 10 9 10 10 9 9 9 9 9 9 8 8 8 8 8 7 7 7 7 6 7 7 7 7 8 8 9 10 10 12 13 14 15 14 14 14 14 14 15 16 17 18 18 18 18 18 20 22 22 21 21 22 23 21 20 22 25 26 25 25 24 21 20 20 18 15 13 14
15 15 15 14 14 14 14 14 13 14 15 14 14 14 13 11 11 11 10 10 10 10 10 10 10 10 10 9 9 9 9 9 8 8 7 7 6 7 7 7 8 8 9 9 10 11 12 13 13 14 14 14 15 15 15 16 16 16 17 19 19 19 20 21 23 23 23 24 24 22 20 22 26 26 24 22 21 21 19 18 19 19 18 16 15
16 16 16 16 15 14 14 14 14 15 15 14 14 15 14 13 13 12 11 11 11 11 10 10 11 11 11 11 11 10 10 11 10 8 7 7 8 7 7 8 9 9 10 10 11 12 12 13 14 14 15 15 15 16 16 16 16 17 18 18 19 19 20 21 23 25 26 25 23 21 23 27 28 25 22 20 18 18 18 16 16 18 21 19 16
16 16 16 17 16 16 15 15 15 15 15 14 15 15 15 14 14 13 12 12 11 11 11 11 12 11 11 11 11 11 12 13 14 13 12 12 12 11 11 12 13 13 13 13 14 14 14 14 15 15 16 16 16 16 16 16 17 19 19 18 18 19 20 22 26 27 27 25 23 25 29 31 28 23 20 18 16 16 16 15 15 18 21 20 18
18 17 17 17 17 17 16 15 15 15 15 15 16 17 17 16 14 12 12 11 11 12 12 12 12 11 11 12 11 13 15 17 18 19 19 17 16 15 15 15 15 16 16 16 16 16 14 15 15 15 16 16 16 17 17 18 19 19 18 18 19 21 23 25 28 29 28 25 24 29 34 31 25 21 19 17 16 15 14 12 15 18 20 20 19
20 19 18 18 17 17 16 16 16 15 15 17 18 18 19 18 15 13 12 10 11 13 13 13 13 12 12 13 12 13 15 16 16 17 17 16 15 14 15 15 15 15 15 16 15 14 14 14 15 15 16 18 18 19 19 19 19 20 21 22 24 26 26 25 27 29 28 26 27 32 32 26 21 19 18 17 16 15 13 13 17 20 22 22 20
22 21 20 20 19 17 16 16 15 15 17 19 19 19 20 21 19 18 16 14 13 14 14 14 14 13 13 13 13 13 13 14 13 11 12 13 12 12 13 14 15 15 15 15 15 14 14 14 16 17 18 19 21 22 22 22 23 24 26 27 27 25 24 24 27 31 31 29 30 30 27 23 20 19 18 17 16 15 15 17 20 22 24 24 21
24 23 21 20 19 19 18 16 16 17 20 20 20 20 21 22 20 19 19 18 15 15 14 14 14 14 13 13 13 12 12 15 14 11 11 13 13 13 14 14 15 15 16 16 15 15 15 15 18 19 20 21 22 23 23 22 23 25 25 25 24 25 27 29 32 34 33 30 27 25 25 25 21 18 18 18 16 15 16 17 20 22 23 24 20
27 26 24 21 19 18 17 17 19 21 21 19 19 21 23 23 21 20 20 20 19 17 16 15 15 14 14 14 14 13 13 14 14 12 12 13 13 15 15 14 14 15 15 15 15 14 16 18 20 22 22 21 21 23 23 22 23 24 25 27 29 31 33 34 34 34 32 28 23 22 24 24 20 18 19 19 16 16 17 18 20 21 22 21 20
27 28 26 22 21 19 16 16 19 20 20 20 19 19 21 21 21 20 20 20 20 19 18 17 17 16 15 14 13 14 15 16 15 16 16 15 15 15 15 15 15 15 14 14 13 12 15 18 21 24 25 22 22 26 28 26 27 28 30 32 34 35 35 35 34 31 27 22 19 20 22 22 20 19 19 18 17 17 18 18 19 19 20 20 21
26 27 26 23 22 21 18 16 16 18 20 21 20 19 20 20 20 20 18 17 18 19 16 14 13 14 15 13 11 12 16 17 17 18 18 16 16 16 17 17 17 16 15 15 14 15 18 20 22 25 27 26 27 28 27 26 27 28 29 31 31 31 31 30 29 26 22 20 19 20 22 22 19 19 19 19 19 20 20 18 17 18 19 20 22
24 25 24 21 21 21 20 17 17 19 20 20 20 20 20 19 19 19 18 16 17 17 14 12 11 11 12 14 13 13 15 17 17 19 18 16 17 18 17 17 18 17 17 17 18 19 21 21 22 24 25 26 27 27 26 25 24 22 22 24 24 23 22 23 24 24 23 22 21 20 21 21 21 21 22 22 23 23 21 18 17 18 20 22 23
21 23 22 18 13 12 16 17 17 18 18 18 19 20 19 18 17 16 16 16 16 16 14 14 14 12 13 15 17 18 19 19 18 18 18 17 17 17 17 18 19 17 17 18 19 19 19 20 21 22 23 24 24 24 23 22 19 18 19 21 21 19 19 21 22 24 24 22 20 20 21 22 23 24 24 26 26 24 20 19 19 18 20 23 24
16 19 18 16 13 11 13 16 17 17 18 19 18 18 18 17 15 13 13 15 16 16 15 14 14 15 15 17 18 18 19 19 19 18 19 18 17 17 17 17 16 14 14 16 17 18 19 20 21 21 21 20 19 19 19 18 17 17 18 19 18 18 19 20 19 21 24 21 19 22 25 25 25 26 25 26 28 26 23 22 21 21 21 22 22
Wind_Direction
119 117 115 108 104 99 93 90 89 90 93 92 86 79 78 74 67 66 68 77 95 104 96 95 98 98 96 93 94 90 89 93 92 94 102 80 32 45 63 73 83 91 95 98 99 98 97 93 88 81 73 67 62 56 49 42 36 29 22 16 8 2 356 351 346 342 341 338 336 333 330 328 325 323 321 321 319 316 313 311 308 305 302 299 297
123 121 117 113 113 111 107 105 102 103 104 97 92 87 82 83 78 70 66 74 90 96 97 104 102 99 100 102 99 88 90 96 91 93 100 103 45 44 59 70 78 89 94 97 97 94 91 86 79 73 67 60 53 45 38 30 24 18 11 5 358 353 349 345 341 340 339 339 340 339 339 339 336 335 334 333 331 327 325 322 319 314 310 304 300
122 117 115 114 115 111 110 111 108 106 103 100 98 94 90 90 92 86 73 76 89 92 96 104 103 104 104 104 107 99 101 103 94 96 90 90 70 38 46 65 77 85 91 90 88 85 80 77 72 66 60 52 44 35 28 22 17 11 6 2 358 353 349 346 343 341 341 342 344 344 347 345 341 341 340 338 336 333 330 326 321 313 307 302 298
123 119 118 118 117 115 116 114 109 105 101 102 94 82 76 75 80 77 69 72 84 93 101 105 106 110 112 106 107 103 94 88 91 98 83 73 83 42 30 51 65 74 81 79 75 72 69 68 65 60 52 43 34 28 23 18 14 10 8 6 4 1 358 355 352 351 350 352 352 351 350 346 343 344 342 339 336 335 331 326 322 316 312 306 302
124 117 115 117 116 118 118 116 114 115 112 103 82 69 72 81 85 81 77 76 84 95 104 108 106 104 112 109 101 101 90 79 83 95 85 71 75 60 31 32 41 52 61 61 57 55 56 59 57 51 43 34 27 25 23 19 17 16 18 20 19 16 15 12 10 9 8 7 5 0 356 352 350 348 344 342 341 341 339 336 336 336 334 327 319
122 113 110 115 112 114 113 116 113 105 106 98 76 67 72 76 92 91 83 72 77 93 106 110 108 100 104 104 97 95 87 84 87 88 88 86 70 55 55 26 8 3 8 20 30 35 39 44 47 43 34 28 26 26 24 23 25 29 33 35 36 35 33 32 28 26 22 19 16 11 7 4 360 356 353 351 350 348 348 349 351 351 345 336 327
125 116 111 112 110 113 115 124 114 98 98 96 86 80 74 68 86 91 93 98 87 90 102 105 108 109 103 97 92 82 83 91 93 91 85 77 68 58 63 67 23 354 349 350 2 20 29 36 38 34 27 25 28 32 32 33 35 40 44 45 45 44 41 40 37 33 30 25 22 19 15 12 7 4 4 1 357 356 357 359 0 358 351 344 335
130 118 112 118 120 123 130 129 115 109 99 83 77 73 79 85 80 81 89 95 96 104 103 100 105 112 112 107 96 81 94 91 71 89 90 67 74 50 21 40 38 22 35 13 347 4 21 32 33 27 25 27 33 41 42 42 46 47 49 49 46 45 43 40 38 34 31 27 24 22 19 16 12 11 11 10 8 7 7 7 6 2 355 350 344
133 121 114 125 125 125 134 123 111 116 98 70 64 50 54 63 69 81 78 50 68 107 113 117 119 115 115 116 103 76 88 93 79 94 94 48 16 53 15 21 23 8 32 44 1 351 359 13 21 20 20 23 32 44 51 50 50 51 49 48 46 43 42 39 36 33 30 27 25 24 23 19 17 18 18 18 18 17 16 14 11 7 360 354 351
142 130 123 135 132 135 145 126 114 109 99 86 91 69 52 51 55 78 73 40 46 74 92 107 116 116 112 114 119 94 80 87 95 100 92 54 53 78 38 31 42 20 32 65 28 5 352 357 3 6 9 15 30 43 51 52 49 48 44 41 40 38 37 35 33 30 28 26 25 24 24 22 22 23 23 20 18 18 16 15 13 10 5 357 353
146 138 131 135 133 147 154 126 116 105 101 104 94 82 85 78 57 63 58 44 44 54 77 64 69 99 98 99 105 100 91 96 104 100 98 88 70 77 34 34 50 19 22 52 41 15 12 5 359 356 354 1 20 35 40 41 39 37 36 33 32 31 30 29 27 25 24 22 21 22 22 22 22 21 18 14 11 11 10 11 10 10 8 1 354
145 144 140 138 133 156 153 120 122 125 113 108 87 83 92 71 59 70 51 25 46 57 61 47 68 94 90 101 103 104 100 96 111 109 109 114 86 89 76 42 60 51 32 57 67 20 19 25 14 358 347 349 3 17 24 25 25 27 26 25 23 22 21 20 20 19 18 18 18 18 19 19 19 16 13 9 6 5 4 5 6 7 8 4 357
146 148 150 146 141 155 148 127 134 160 141 132 140 139 103 63 38 65 56 18 38 59 79 76 106 118 112 119 117 122 104 79 109 134 122 129 102 91 107 44 58 82 61 53 60 39 21 30 25 4 0 354 355 5 13 15 18 21 21 20 16 14 14 13 13 13 12 13 14 14 14 13 12 10 8 7 4 2 2 3 5 5 7 5 360
151 152 153 144 144 156 150 144 155 178 159 138 129 117 105 74 34 55 75 61 39 56 109 122 125 139 135 133 123 125 114 68 102 139 130 133 119 94 88 55 61 70 54 49 54 50 32 37 38 18 14 10 6 10 10 10 14 20 20 17 14 11 11 9 8 9 8 8 9 9 10 9 7 5 4 3 1 360 0 1 3 5 6 6 2
155 149 150 150 155 151 143 162 167 170 157 136 127 106 103 72 45 72 107 102 78 66 85 106 114 132 148 147 139 112 106 95 97 101 101 115 107 86 100 97 72 60 64 54 41 41 39 44 50 44 33 30 30 24 16 13 12 16 17 14 11 8 7 7 6 6 6 5 5 4 5 6 4 2 1 0 358 356 357 359 3 4 5 6 4
160 147 163 178 163 146 156 207 183 157 152 128 109 80 74 73 89 119 98 84 93 90 69 83 110 127 172 160 137 95 84 94 109 92 73 102 100 72 95 97 66 72 75 50 51 46 9 16 36 45 42 39 37 24 20 21 9 6 11 9 4 1 0 2 3 3 3 3 2 2 3 4 3 2 1 360 358 355 355 358 2 4 4 5 6
172 159 181 189 166 160 168 190 190 145 130 89 87 79 81 107 124 110 71 55 86 102 96 89 102 123 139 116 90 76 51 40 89 88 75 95 90 65 90 86 62 80 82 65 75 63 351 358 12 25 34 35 30 16 14 15 1 355 4 3 356 353 351 353 356 358 359 359 359 1 3 5 6 5 3 2 360 356 354 357 1 3 2 4 6
175 164 189 191 169 177 165 157 210 165 152 160 158 146 136 135 114 98 87 105 101 93 106 113 115 103 107 109 91 70 46 41 74 85 86 76 82 93 85 86 84 68 76 88 74 48 31 360 347 352 9 23 20 6 11 5 350 353 360 357 351 344 342 345 349 352 354 354 355 359 5 8 10 9 7 6 3 359 356 356 360 2 1 2 4
176 179 191 189 173 186 176 158 181 212 185 177 169 138 143 184 181 141 158 150 114 82 94 108 114 97 100 117 116 58 55 108 133 110 114 34 103 120 68 66 81 59 71 88 49 9 25 20 354 335 334 354 359 350 0 350 350 3 359 353 348 339 336 338 343 347 349 351 353 359 6 10 12 13 11 9 6 1 357 355 358 1 1 0 2
187 199 186 186 186 188 192 171 168 202 211 184 183 199 201 211 199 163 160 139 104 95 111 105 86 87 119 120 124 222 121 112 110 109 129 72 55 107 82 42 19 39 85 78 36 340 346 336 344 328 316 332 338 339 351 350 357 4 353 350 348 338 333 334 337 343 348 351 353 359 6 8 10 11 10 10 8 4 359 356 356 358 359 359 360
192 203 184 192 200 188 195 182 170 190 193 194 216 207 208 206 185 163 160 135 88 147 128 96 54 56 88 94 129 194 271 216 209 262 155 132 108 146 116 4 2 47 84 43 15 332 336 311 324 338 319 324 328 331 346 354 359 351 343 348 347 337 334 334 336 343 351 354 356 358 3 4 4 4 4 4 4 3 1 358 356 356 357 358 359
196 205 194 195 198 188 191 181 180 209 203 196 206 209 215 200 176 199 207 185 165 150 116 29 11 84 67 339 82 148 278 250 243 288 235 199 227 154 120 260 155 100 350 337 328 299 307 349 341 331 304 312 323 330 335 346 352 343 342 348 343 338 341 341 342 348 354 357 357 355 355 356 356 356 356 355 355 356 356 357 356 356 356 356 357
193 212 200 192 197 180 169 194 203 216 209 187 195 218 207 191 224 233 232 216 212 200 174 282 298 101 219 311 343 248 230 227 267 304 318 311 315 24 48 357 7 122 3 347 335 310 322 348 336 317 319 317 318 325 332 342 339 333 338 343 339 341 347 347 350 352 353 356 355 351 349 349 350 349 350 349 349 349 349 350 352 353 355 356 356
183 203 190 191 208 177 167 207 212 203 201 185 199 203 173 168 242 247 276 269 252 252 225 211 278 281 258 269 269 258 254 253 271 297 318 322 319 300 334 355 335 326 51 312 319 327 306 310 310 308 326 327 314 317 328 336 326 322 331 337 337 342 343 344 351 352 350 352 351 349 346 345 345 344 345 345 345 345 344 344 345 347 350 353 355
177 194 189 195 219 194 179 205 209 199 202 200 209 202 173 176 236 219 277 284 271 262 254 262 273 255 260 277 266 261 271 279 272 266 287 287 264 281 321 333 308 310 327 295 308 316 285 294 299 264 300 315 308 312 321 322 314 316 330 338 339 336 332 337 347 349 348 349 348 347 345 343 342 341 341 341 341 342 342 341 341 342 343 346 350
177 187 188 186 206 226 213 207 209 206 207 208 216 216 198 206 227 192 227 271 264 259 269 288 288 266 267 281 274 281 289 288 288 275 278 285 290 333 346 324 294 298 310 295 312 310 275 299 311 291 294 304 303 307 308 309 308 313 329 339 336 323 322 335 343 344 346 348 347 347 345 343 341 338 337 338 338 340 342 341 340 339 339 340 344
184 189 196 186 191 227 233 212 215 214 214 217 212 229 226 219 232 211 214 267 266 250 258 269 276 270 280 282 268 292 317 299 292 295 296 321 354 350 343 329 317 317 305 284 289 289 255 296 300 281 271 295 307 316 306 309 308 308 321 331 324 314 319 332 338 340 345 347 347 347 345 343 340 337 336 336 337 339 341 342 340 339 338 338 339
189 194 200 194 196 219 222 221 240 223 213 222 202 215 230 221 241 233 200 256 266 245 238 265 275 269 278 287 272 285 302 296 302 306 296 308 338 338 335 332 330 331 314 300 295 288 283 310 297 282 284 303 319 325 314 313 301 298 314 323 317 312 316 328 336 340 343 346 348 347 346 345 343 341 339 337 338 339 341 343 342 342 341 339 339
198 199 203 207 210 205 191 212 250 245 218 219 208 217 230 213 235 242 207 223 248 240 233 250 268 275 275 284 287 289 291 295 303 303 304 308 309 323 331 321 318 324 314 310 317 301 290 303 303 301 313 326 330 322 310 308 298 301 317 320 313 309 315 331 341 339 339 341 344 346 345 345 344 343 342 340 340 340 342 344 343 344 344 342 341
205 199 198 212 224 211 189 195 224 244 231 221 217 223 228 215 231 248 230 232 242 237 240 241 245 266 268 269 280 283 287 295 288 286 311 322 314 319 322 309 311 315 308 309 313 308 304 308 305 308 317 320 319 316 312 310 304 307 318 320 313 314 327 343 344 335 334 335 337 339 340 342 342 342 341 340 341 342 342 343 343 343 344 344 344
211 206 198 205 225 225 211 203 214 233 233 225 227 225 217 210 231 258 254 259 259 240 240 247 245 257 258 258 267 268 272 289 287 282 297 303 305 316 311 307 315 308 309 317 312 306 310 310 305 305 310 310 312 313 313 316 312 310 320 326 318 321 337 346 337 329 330 330 330 331 334 336 336 338 339 339 340 342 342 343 343 341 342 345 346
215 217 212 208 216 221 223 218 216 224 225 219 227 236 223 200 203 229 240 252 260 245 237 237 233 249 256 251 252 256 259 270 278 281 282 283 291 288 276 295 307 291 303 317 310 305 307 305 302 305 308 312 314 313 313 319 317 313 320 324 318 325 334 332 326 326 326 326 327 327 329 332 334 337 337 337 338 340 342 342 342 340 339 342 347
211 216 217 214 214 216 216 218 216 219 224 218 217 231 238 220 208 219 232 242 245 240 240 236 229 240 255 253 247 253 260 262 265 273 275 277 281 278 280 295 305 289 298 306 299 301 307 307 304 303 307 313 313 312 313 316 315 313 317 319 320 325 326 323 323 324 324 326 325 324 328 331 334 336 336 338 340 340 342 343 342 340 337 339 346
211 212 217 217 217 217 215 219 217 216 230 232 221 223 236 240 231 224 238 255 250 237 241 246 241 239 249 253 252 258 266 266 263 263 268 271 276 283 295 308 310 299 299 298 294 299 307 309 307 307 310 311 309 309 312 313 315 315 317 319 321 322 322 323 324 324 326 325 323 326 329 329 331 335 337 340 341 341 342 343 343 341 336 337 344
216 216 219 218 218 218 213 216 220 220 233 240 225 220 232 241 237 223 228 248 252 243 244 254 257 252 254 258 255 254 257 257 256 258 263 266 269 278 293 300 295 292 293 292 295 300 303 305 307 310 309 307 307 310 311 312 312 314 316 316 318 320 320 322 324 327 326 323 325 330 328 326 331 335 336 338 340 342 343 343 344 341 336 335 340
222 221 220 214 217 224 221 219 225 226 232 237 228 223 233 241 240 229 223 229 237 239 237 240 245 244 247 253 254 253 251 249 253 259 262 262 264 270 279 284 284 288 291 290 293 297 300 303 305 307 308 308 310 311 310 310 311 313 314 314 316 317 318 322 326 326 324 324 327 328 325 329 335 332 331 336 341 343 343 343 344 341 336 335 338
222 223 223 214 215 228 229 224 230 234 232 232 229 225 229 239 243 238 235 236 239 240 237 237 240 239 241 245 246 247 249 252 257 262 260 258 264 271 275 277 278 282 287 289 293 296 298 301 305 310 313 312 311 310 311 313 313 312 313 316 320 318 316 320 324 326 326 327 327 325 328 335 332 326 330 336 339 341 342 342 345 344 338 334 335
221 221 224 218 216 228 232 224 226 236 236 233 233 231 227 232 239 238 238 242 244 243 242 243 246 247 248 247 245 244 245 247 249 254 257 259 267 275 277 278 279 283 288 292 295 296 297 300 305 309 311 310 309 309 311 313 312 311 312 317 320 317 315 319 326 329 328 326 328 330 332 330 323 325 330 332 332 335 337 339 342 346 346 339 333
222 222 223 220 218 224 230 226 221 230 237 233 235 238 231 227 235 238 236 238 242 244 245 245 246 248 249 248 247 247 247 247 248 252 260 266 270 273 279 285 287 289 293 296 297 295 296 299 302 304 305 307 308 308 311 314 314 312 312 314 315 314 316 320 324 326 325 325 329 330 327 322 323 327 328 326 327 328 331 336 335 338 346 346 335
224 224 223 223 223 223 227 228 223 228 237 235 234 240 237 229 230 235 238 239 240 242 244 245 245 246 247 248 250 250 250 250 247 242 241 246 252 257 264 271 276 283 289 292 293 294 297 299 301 303 304 306 308 310 312 315 315 313 313 313 311 313 316 317 318 321 324 325 325 322 321 323 326 327 325 326 327 326 330 333 322 326 341 345 337
225 225 224 223 225 225 227 230 229 230 235 235 236 239 239 234 232 234 238 241 243 245 245 245 247 248 249 252 253 253 251 248 247 248 250 251 254 258 262 267 273 281 286 288 290 292 295 297 298 302 304 305 308 310 311 313 313 312 313 312 311 311 312 311 314 318 322 322 320 318 321 325 327 326 327 329 329 328 331 326 313 321 336 341 339
221 221 222 222 224 226 227 228 229 230 232 235 235 236 238 240 235 232 236 238 239 242 243 244 246 248 251 253 254 255 254 254 257 261 266 268 267 268 271 276 281 285 289 291 292 292 292 293 296 300 302 303 306 307 309 311 312 312 312 311 309 308 308 309 312 317 319 319 316 316 321 326 327 325 326 327 324 328 329 316 307 314 324 333 338
223 220 219 220 221 224 228 228 228 230 233 236 236 236 241 243 236 231 235 238 240 242 243 245 247 248 250 252 253 256 259 263 265 265 266 270 273 276 281 286 290 292 294 295 294 292 290 291 294 297 300 301 304 305 306 308 308 305 304 304 303 305 307 307 308 311 314 315 314 315 320 327 327 324 325 324 322 327 322 304 305 314 321 328 332
229 226 222 221 219 220 225 228 231 232 233 234 236 237 242 245 243 239 239 242 247 250 250 248 247 249 250 251 252 255 257 260 262 263 267 273 278 283 287 291 294 295 295 295 294 292 291 290 293 296 298 299 300 302 304 305 304 302 301 303 305 306 306 304 303 305 309 312 314 315 319 326 326 324 325 324 320 321 316 308 311 317 321 323 325
232 231 227 223 221 222 223 223 227 230 229 229 232 236 241 246 247 245 244 242 243 247 249 249 247 246 246 247 249 252 255 259 258 255 263 274 280 285 286 287 289 289 289 287 286 287 287 286 288 291 292 296 299 300 301 302 302 302 304 304 304 304 304 303 304 305 310 316 319 319 320 324 325 320 318 319 318 319 318 314 312 314 317 320 324
233 232 229 224 220 220 222 224 228 230 229 226 229 236 241 246 246 244 244 245 244 244 246 247 246 244 244 246 247 246 253 260 255 246 254 268 275 282 286 287 289 288 286 284 283 284 284 283 285 289 292 296 298 295 294 296 296 296 296 296 298 301 301 303 304 306 312 318 320 317 316 317 319 316 314 316 319 318 316 314 311 312 317 322 326
233 230 228 226 222 216 218 227 231 233 233 229 228 235 241 246 246 243 245 249 249 246 244 245 247 246 243 244 248 248 249 251 248 250 260 269 273 278 282 284 286 285 284 286 289 287 284 284 287 291 293 291 289 289 292 292 289 287 288 290 294 297 299 302 304 306 310 312 311 311 310 310 314 315 313 315 317 314 315 318 318 317 321 322 321
233 229 227 230 229 222 220 230 236 236 236 234 235 240 245 247 247 247 248 249 250 249 247 244 246 247 243 240 247 255 252 248 250 258 266 269 271 276 279 281 283 285 286 289 287 279 278 281 283 285 288 289 289 292 296 295 293 292 291 291 294 298 300 302 303 304 306 307 309 310 308 310 317 319 316 316 317 317 321 326 325 320 316 314 314
232 228 225 228 232 226 220 226 236 238 239 240 241 244 249 252 251 250 248 248 252 256 255 245 242 251 253 247 249 262 264 259 260 266 270 269 270 275 279 281 285 289 291 290 286 282 282 284 284 284 288 291 293 296 299 299 301 302 299 298 303 307 304 300 301 303 306 309 314 313 309 311 317 318 316 315 316 319 322 322 319 315 310 309 312
218 221 219 213 214 215 209 214 228 238 243 246 245 246 252 256 254 251 250 250 250 250 248 242 244 254 262 258 256 260 265 266 266 267 270 271 273 277 282 285 289 294 294 289 286 286 286 288 290 292 294 296 298 300 301 300 303 306 306 308 312 311 304 300 302 304 306 311 314 311 309 311 313 313 314 314 313 314 313 311 312 312 309 310 313
192 199 203 199 199 201 203 213 225 235 241 244 245 249 254 255 254 253 251 251 251 250 249 246 247 252 256 256 256 257 262 266 267 267 270 273 276 280 283 286 288 288 287 285 285 287 291 295 297 299 302 306 309 313 315 316 318 319 317 313 311 308 305 303 302 303 306 311 312 309 310 312 312 312 314 313 312 311 311 313 313 310 308 309 310
Height
1599 1599 1599 1599 1600 1600 1600 1601 1601 1602 1602 1602 1602 1602 1602 1602 1602 1602 1602 1603 1603 1604 1604 1605 1605 1604 1604 1604 1604 1604 1604 1604 1603 1604 1604 1603 1601 1600 1600 1599 1598 1598 1597 1596 1596 1596 1595 1594 1594 1593 1592 1592 1592 1591 1591 1591 1590 1589 1589 1588 1588 1587 1587 1586 1585 1584 1584 1583 1582 1581 1580 1579 1579 1578 1577 1576 1576 1575 1575 1574 1573 1573 1571 1568 1564
1601 1601 1601 1601 1601 1602 1602 1603 1603 1603 1603 1603 1603 1603 1604 1604 1604 1604 1603 1603 1604 1604 1605 1606 1606 1606 1605 1605 1605 1605 1605 1605 1604 1605 1605 1604 1603 1601 1601 1600 1599 1599 1598 1598 1597 1597 1596 1595 1594 1594 1593 1593 1592 1592 1591 1591 1590 1589 1589 1588 1587 1587 1586 1586 1585 1584 1583 1582 1581 1581 1580 1579 1578 1577 1576 1575 1575 1574 1573 1573 1572 1571 1570 1567 1565
1602 1602 1602 1603 1603 1603 1604 1604 1604 1604 1604 1604 1604 1604 1604 1604 1604 1604 1604 1604 1605 1605 1606 1606 1606 1606 1606 1606 1606 1606 1606 1606 1606 1606 1606 1606 1605 1603 1602 1602 1601 1600 1600 1599 1599 1598 1597 1596 1595 1594 1594 1593 1593 1592 1591 1591 1590 1589 1588 1588 1587 1587 1586 1585 1584 1583 1583 1582 1581 1580 1579 1578 1577 1576 1575 1575 1574 1573 1573 1572 1571 1570 1569 1567 1564
1603 1603 1604 1604 1605 1605 1605 1605 1605 1605 1604 1604 1604 1604 1604 1605 1604 1604 1605 1605 1605 1606 1606 1607 1607 1607 1607 1607 1607 1607 1607 1607 1608 1608 1608 1607 1607 1606 1604 1604 1603 1602 1602 1601 1600 1599 1598 1597 1596 1595 1595 1594 1593 1592 1592 1591 1590 1589 1588 1588 1587 1586 1586 1585 1584 1583 1582 1581 1580 1580 1579 1578 1577 1576 1575 1574 1573 1573 1572 1570 1569 1568 1567 1565 1563
1603 1604 1605 1605 1606 1605 1605 1605 1605 1605 1604 1604 1604 1604 1605 1605 1605 1605 1605 1606 1606 1606 1607 1607 1607 1608 1608 1608 1608 1608 1608 1608 1609 1609 1609 1609 1608 1608 1607 1605 1604 1604 1603 1602 1602 1601 1599 1599 1598 1597 1596 1595 1594 1593 1592 1591 1590 1589 1588 1588 1587 1586 1586 1585 1584 1583 1582 1581 1580 1579 1579 1578 1576 1575 1574 1574 1573 1572 1570 1569 1568 1566 1565 1563 1561
1603 1604 1605 1606 1606 1606 1605 1605 1605 1605 1605 1605 1605 1606 1605 1605 1605 1605 1605 1607 1607 1607 1608 1608 1608 1608 1608 1608 1608 1608 1608 1609 1610 1610 1610 1610 1609 1608 1608 1608 1607 1606 1605 1604 1603 1603 1601 1600 1599 1598 1597 1596 1595 1593 1592 1591 1590 1590 1589 1588 1587 1587 1586 1585 1584 1583 1582 1581 1580 1579 1579 1578 1576 1575 1574 1573 1572 1571 1569 1568 1567 1565 1564 1562 1559
1603 1604 1605 1606 1606 1606 1606 1606 1606 1606 1606 1606 1606 1606 1606 1606 1606 1605 1605 1607 1608 1608 1608 1608 1608 1608 1608 1609 1609 1609 1609 1610 1610 1611 1611 1611 1610 1609 1609 1609 1609 1608 1607 1606 1606 1605 1604 1602 1601 1600 1598 1597 1596 1595 1594 1593 1592 1591 1590 1589 1588 1587 1586 1586 1585 1584 1583 1582 1581 1580 1579 1578 1576 1575 1574 1573 1572 1570 1569 1567 1566 1564 1562 1560 1558
1603 1604 1606 1607 1607 1607 1606 1606 1606 1606 1607 1606 1606 1606 1606 1606 1606 1606 1605 1607 1608 1609 1609 1609 1609 1609 1609 1609 1609 1609 1610 1610 1611 1612 1612 1611 1611 1610 1611 1610 1609 1609 1609 1609 1608 1607 1606 1604 1603 1602 1600 1599 1597 1596 1595 1594 1593 1592 1591 1590 1589 1588 1587 1586 1585 1584 1583 1582 1581 1580 1579 1578 1576 1575 1574 1572 1571 1570 1568 1567 1565 1563 1561 1559 1557
1604 1604 1606 1607 1608 1608 1607 1607 1607 1607 1607 1607 1607 1607 1607 1607 1607 1607 1607 1607 1608 1609 1609 1609 1609 1609 1609 1609 1609 1609 1610 1611 1611 1612 1612 1611 1610 1610 1612 1611 1611 1610 1610 1611 1610 1609 1608 1607 1605 1604 1603 1601 1600 1598 1597 1596 1595 1594 1593 1592 1590 1589 1588 1587 1586 1585 1584 1583 1581 1580 1579 1578 1576 1575 1574 1572 1571 1570 1568 1567 1565 1563 1561 1558 1555
1605 1605 1606 1608 1608 1608 1608 1607 1607 1607 1608 1608 1609 1608 1608 1608 1608 1608 1608 1608 1609 1609 1609 1609 1609 1609 1610 1610 1610 1610 1611 1611 1612 1612 1613 1612 1610 1611 1612 1612 1612 1611 1611 1612 1612 1611 1610 1608 1607 1606 1605 1604 1602 1600 1599 1598 1597 1596 1594 1593 1592 1591 1589 1588 1587 1586 1584 1583 1582 1580 1579 1578 1577 1575 1574 1573 1571 1570 1568 1567 1565 1563 1560 1557 1554
1605 1606 1606 1607 1608 1608 1608 1608 1608 1608 1608 1609 1609 1609 1609 1609 1609 1608 1609 1609 1609 1610 1609 1609 1610 1610 1610 1610 1610 1611 1612 1612 1612 1613 1614 1614 1613 1612 1612 1612 1612 1612 1612 1612 1613 1612 1610 1610 1609 1608 1608 1607 1605 1603 1602 1600 1599 1598 1596 1595 1594 1592 1591 1589 1588 1586 1585 1584 1582 1581 1580 1578 1577 1576 1574 1573 1571 1570 1568 1566 1565 1562 1560 1557 1554
1606 1606 1607 1607 1608 1609 1608 1608 1609 1609 1609 1609 1610 1610 1609 1609 1609 1609 1609 1610 1610 1610 1610 1610 1610 1610 1610 1611 1611 1611 1612 1612 1612 1614 1615 1615 1614 1613 1613 1613 1613 1613 1612 1612 1613 1612 1611 1611 1612 1612 1611 1609 1608 1607 1605 1603 1601 1600 1598 1597 1595 1594 1592 1590 1589 1587 1586 1584 1583 1581 1580 1579 1577 1576 1575 1573 1571 1570 1568 1566 1564 1562 1560 1557 1553
1606 1607 1607 1608 1608 1609 1609 1609 1610 1609 1609 1609 1610 1609 1609 1610 1610 1609 1610 1611 1611 1611 1610 1610 1611 1611 1611 1611 1612 1612 1612 1611 1612 1614 1615 1614 1614 1614 1614 1613 1613 1613 1613 1612 1612 1612 1612 1612 1613 1614 1614 1612 1610 1609 1606 1605 1603 1601 1600 1598 1597 1595 1593 1592 1590 1588 1586 1585 1583 1582 1580 1579 1578 1576 1575 1573 1571 1570 1568 1566 1564 1562 1560 1557 1553
1607 1607 1608 1608 1609 1609 1609 1609 1610 1609 1609 1609 1609 1609 1610 1610 1610 1610 1610 1611 1611 1611 1611 1610 1611 1612 1612 1612 1612 1612 1612 1612 1613 1614 1615 1615 1615 1615 1615 1614 1614 1614 1614 1613 1612 1613 1614 1613 1612 1613 1614 1612 1610 1609 1607 1606 1604 1603 1601 1599 1598 1596 1595 1593 1591 1589 1587 1585 1584 1582 1581 1580 1578 1577 1575 1574 1572 1570 1568 1566 1564 1562 1559 1557 1553
1608 1608 1609 1609 1609 1610 1610 1610 1610 1610 1609 1609 1610 1610 1610 1611 1612 1611 1611 1611 1612 1612 1612 1611 1611 1612 1612 1612 1612 1612 1613 1613 1613 1614 1615 1615 1615 1616 1616 1616 1616 1616 1616 1615 1614 1613 1614 1613 1610 1610 1611 1610 1609 1607 1606 1606 1605 1603 1602 1600 1599 1597 1596 1594 1592 1590 1588 1586 1584 1583 1582 1580 1579 1577 1576 1574 1572 1570 1568 1566 1564 1562 1560 1557 1554
1608 1609 1609 1609 1609 1610 1611 1610 1610 1610 1610 1610 1610 1611 1611 1612 1612 1612 1611 1611 1612 1613 1613 1612 1612 1612 1612 1612 1612 1614 1615 1615 1614 1615 1615 1616 1616 1617 1616 1617 1617 1617 1617 1616 1614 1614 1614 1613 1611 1609 1608 1609 1608 1607 1606 1606 1605 1604 1602 1601 1600 1598 1596 1594 1592 1590 1588 1587 1585 1583 1582 1580 1579 1577 1576 1574 1572 1570 1568 1566 1564 1562 1560 1557 1554
1609 1609 1610 1609 1609 1610 1610 1610 1610 1610 1611 1611 1611 1612 1612 1613 1613 1612 1612 1612 1613 1614 1614 1613 1613 1613 1613 1613 1613 1615 1616 1615 1615 1615 1615 1616 1617 1617 1617 1617 1617 1617 1616 1616 1615 1614 1614 1612 1611 1610 1609 1608 1608 1607 1607 1606 1605 1604 1602 1600 1600 1599 1597 1595 1593 1591 1589 1587 1585 1584 1582 1581 1579 1577 1576 1574 1572 1570 1568 1566 1565 1562 1560 1558 1555
1609 1609 1610 1609 1609 1610 1610 1611 1611 1611 1611 1611 1612 1612 1612 1613 1613 1612 1613 1613 1613 1613 1614 1614 1614 1614 1614 1613 1614 1615 1616 1615 1616 1616 1616 1616 1616 1617 1617 1617 1616 1616 1616 1615 1615 1615 1615 1613 1612 1611 1609 1608 1607 1607 1606 1606 1605 1604 1602 1600 1599 1599 1597 1596 1593 1591 1589 1587 1585 1584 1582 1581 1579 1578 1576 1574 1573 1571 1569 1567 1565 1563 1560 1558 1555
1609 1609 1609 1609 1609 1610 1610 1610 1611 1611 1611 1612 1612 1612 1613 1613 1613 1612 1613 1613 1613 1613 1614 1614 1615 1615 1614 1614 1614 1615 1616 1616 1615 1616 1616 1616 1615 1616 1617 1617 1616 1616 1615 1615 1616 1614 1614 1614 1613 1611 1610 1609 1607 1607 1607 1606 1605 1603 1601 1600 1599 1598 1597 1596 1594 1592 1590 1588 1586 1584 1583 1581 1580 1578 1576 1575 1573 1571 1569 1567 1565 1563 1561 1559 1556
1609 1608 1609 1609 1609 1610 1610 1610 1611 1612 1612 1612 1612 1613 1613 1612 1612 1612 1612 1613 1613 1613 1613 1614 1614 1615 1615 1615 1615 1615 1616 1616 1616 1615 1616 1615 1615 1616 1617 1617 1616 1616 1616 1616 1616 1614 1613 1614 1612 1610 1610 1609 1608 1607 1607 1606 1604 1602 1602 1600 1599 1598 1597 1596 1594 1592 1590 1588 1586 1584 1583 1581 1580 1578 1577 1575 1573 1572 1569 1567 1565 1563 1561 1559 1557
1608 1608 1609 1609 1609 1610 1610 1610 1611 1611 1612 1612 1613 1612 1612 1612 1612 1612 1612 1613 1613 1613 1614 1614 1614 1615 1615 1615 1615 1615 1616 1616 1616 1616 1616 1616 1616 1617 1617 1617 1616 1616 1616 1616 1617 1616 1614 1614 1612 1610 1610 1609 1608 1607 1606 1605 1604 1603 1602 1600 1599 1598 1597 1596 1594 1592 1590 1588 1586 1584 1583 1582 1580 1579 1577 1575 1574 1572 1570 1568 1566 1564 1562 1560 1557
1608 1608 1609 1609 1609 1610 1610 1611 1611 1611 1612 1612 1612 1612 1612 1612 1612 1612 1612 1612 1613 1613 1613 1614 1614 1614 1615 1615 1614 1615 1615 1616 1616 1615 1616 1616 1616 1616 1616 1616 1616 1617 1616 1616 1616 1616 1614 1613 1613 1612 1610 1608 1607 1606 1606 1604 1603 1602 1601 1599 1598 1598 1597 1595 1594 1592 1590 1588 1586 1584 1583 1582 1580 1579 1577 1576 1574 1572 1570 1568 1566 1564 1562 1560 1558
1609 1608 1608 1609 1609 1610 1610 1611 1611 1611 1611 1611 1612 1613 1612 1613 1613 1612 1612 1612 1612 1613 1613 1614 1614 1614 1614 1614 1614 1615 1615 1615 1615 1615 1615 1616 1616 1616 1616 1616 1617 1617 1616 1616 1615 1615 1614 1613 1612 1612 1610 1609 1608 1607 1606 1605 1603 1602 1600 1598 1598 1597 1596 1595 1594 1592 1590 1588 1586 1585 1583 1582 1580 1579 1577 1576 1574 1572 1571 1568 1566 1564 1562 1560 1558
1609 1608 1609 1609 1609 1609 1610 1611 1611 1611 1611 1611 1612 1612 1612 1613 1613 1612 1612 1612 1612 1612 1613 1613 1614 1614 1614 1614 1614 1614 1614 1614 1614 1614 1614 1614 1615 1615 1615 1616 1616 1616 1615 1615 1615 1615 1615 1614 1612 1612 1612 1611 1610 1609 1608 1606 1603 1601 1600 1599 1598 1597 1596 1595 1593 1591 1590 1588 1586 1584 1583 1581 1580 1578 1577 1575 1574 1572 1570 1568 1566 1564 1563 1561 1559
1609 1609 1608 1609 1609 1609 1609 1610 1610 1610 1610 1610 1611 1611 1611 1613 1613 1613 1613 1613 1612 1612 1613 1613 1614 1614 1614 1614 1614 1614 1613 1613 1614 1613 1613 1613 1613 1614 1615 1615 1615 1615 1615 1614 1615 1615 1615 1614 1612 1613 1613 1613 1612 1610 1609 1608 1604 1602 1601 1600 1598 1597 1596 1595 1593 1591 1589 1588 1586 1584 1583 1581 1580 1578 1577 1575 1574 1572 1570 1568 1566 1565 1563 1561 1559
1608 1609 1608 1609 1609 1609 1609 1609 1609 1610 1610 1610 1611 1611 1611 1612 1612 1612 1613 1613 1612 1612 1613 1613 1614 1614 1614 1614 1613 1613 1612 1613 1613 1613 1612 1612 1612 1613 1614 1614 1614 1614 1614 1614 1614 1615 1615 1614 1613 1613 1613 1612 1610 1608 1608 1608 1605 1602 1601 1600 1598 1597 1596 1594 1592 1591 1589 1587 1586 1584 1582 1581 1579 1578 1576 1575 1573 1572 1570 1568 1566 1564 1563 1561 1559
1608 1608 1608 1608 1609 1608 1608 1609 1609 1609 1610 1610 1610 1611 1611 1611 1611 1612 1612 1613 1613 1612 1613 1614 1614 1614 1614 1614 1613 1613 1613 1613 1612 1612 1612 1612 1613 1614 1614 1614 1613 1613 1613 1613 1614 1614 1614 1613 1613 1613 1613 1610 1608 1607 1606 1606 1604 1602 1601 1600 1599 1597 1595 1594 1592 1590 1589 1587 1586 1584 1582 1581 1579 1577 1576 1574 1573 1571 1569 1567 1566 1564 1562 1561 1559
1607 1608 1608 1608 1608 1608 1608 1609 1609 1609 1609 1610 1610 1611 1611 1611 1611 1611 1612 1613 1612 1612 1612 1613 1614 1614 1614 1613 1613 1614 1613 1613 1612 1612 1611 1612 1613 1614 1613 1614 1613 1613 1612 1612 1613 1613 1613 1612 1611 1611 1612 1610 1608 1607 1606 1605 1604 1602 1601 1600 1599 1597 1595 1593 1592 1590 1588 1587 1585 1583 1582 1580 1578 1577 1575 1573 1572 1570 1569 1567 1565 1563 1562 1560 1559
1607 1607 1607 1607 1607 1608 1609 1609 1609 1609 1609 1609 1610 1610 1610 1611 1611 1611 1611 1612 1612 1611 1612 1613 1613 1614 1614 1614 1613 1613 1613 1613 1613 1612 1612 1612 1613 1614 1613 1613 1613 1612 1612 1611 1611 1612 1612 1612 1611 1610 1610 1609 1608 1607 1606 1605 1603 1602 1601 1599 1598 1597 1595 1593 1591 1589 1588 1586 1585 1583 1581 1580 1578 1576 1574 1573 1571 1570 1568 1567 1565 1563 1561 1560 1558
1607 1607 1607 1607 1607 1607 1608 1608 1608 1609 1609 1609 1609 1610 1610 1610 1611 1611 1611 1611 1611 1611 1611 1612 1613 1613 1613 1613 1613 1613 1613 1612 1612 1612 1612 1612 1613 1613 1613 1612 1612 1612 1611 1611 1611 1611 1611 1611 1610 1609 1609 1609 1608 1607 1606 1605 1603 1602 1600 1598 1597 1596 1594 1592 1590 1589 1587 1585 1584 1583 1581 1579 1578 1576 1574 1572 1571 1569 1568 1566 1564 1562 1561 1559 1558
1606 1606 1607 1607 1607 1607 1607 1607 1608 1608 1608 1608 1609 1609 1609 1610 1610 1610 1610 1610 1610 1610 1611 1611 1612 1612 1612 1612 1612 1612 1612 1612 1612 1612 1612 1612 1612 1612 1612 1611 1611 1611 1611 1611 1610 1609 1609 1609 1609 1609 1609 1608 1607 1606 1605 1604 1603 1601 1599 1598 1596 1594 1592 1591 1590 1588 1587 1585 1584 1582 1580 1579 1577 1575 1573 1571 1570 1569 1567 1565 1564 1562 1560 1559 1558
1605 1605 1606 1607 1607 1607 1607 1607 1608 1608 1608 1608 1609 1608 1608 1609 1610 1610 1609 1610 1610 1610 1610 1611 1611 1611 1611 1611 1611 1611 1611 1611 1611 1612 1612 1611 1611 1611 1611 1611 1610 1610 1610 1610 1609 1608 1608 1608 1608 1608 1607 1607 1606 1605 1604 1603 1602 1600 1598 1597 1595 1593 1592 1591 1590 1588 1586 1585 1583 1581 1580 1578 1576 1574 1573 1571 1569 1568 1566 1565 1563 1561 1560 1558 1557
1605 1605 1605 1606 1606 1607 1607 1607 1608 1608 1608 1608 1608 1608 1608 1608 1608 1608 1608 1608 1609 1609 1609 1609 1610 1610 1610 1609 1610 1609 1610 1610 1610 1611 1611 1611 1611 1610 1610 1610 1609 1609 1608 1609 1608 1607 1606 1606 1606 1606 1606 1605 1604 1604 1603 1601 1601 1599 1597 1596 1594 1593 1592 1591 1589 1587 1586 1584 1582 1581 1579 1577 1575 1574 1572 1570 1569 1567 1565 1564 1562 1560 1559 1558 1557
1603 1604 1604 1605 1605 1606 1606 1607 1607 1607 1607 1607 1607 1607 1607 1607 1607 1608 1608 1608 1608 1608 1608 1608 1608 1609 1609 1609 1609 1609 1609 1609 1609 1610 1610 1610 1610 1610 1609 1609 1609 1608 1608 1608 1607 1607 1606 1605 1605 1605 1604 1604 1603 1602 1601 1600 1599 1597 1596 1595 1593 1592 1591 1590 1589 1587 1585 1583 1582 1580 1578 1576 1574 1573 1571 1569 1568 1566 1564 1563 1561 1560 1558 1557 1556
1602 1602 1603 1604 1604 1604 1605 1606 1605 1606 1606 1605 1606 1606 1607 1607 1607 1607 1608 1607 1607 1607 1608 1608 1608 1608 1608 1608 1608 1609 1609 1609 1609 1609 1609 1609 1609 1609 1608 1608 1608 1608 1608 1608 1607 1606 1605 1605 1604 1604 1603 1602 1601 1600 1600 1599 1598 1596 1595 1593 1592 1591 1590 1589 1588 1586 1584 1583 1581 1580 1578 1575 1573 1572 1570 1569 1567 1565 1563 1562 1561 1559 1558 1557 1556
1601 1601 1601 1602 1603 1603 1603 1604 1604 1604 1604 1604 1605 1605 1606 1606 1606 1606 1606 1606 1607 1607 1607 1607 1607 1607 1608 1608 1608 1608 1608 1608 1608 1608 1608 1608 1608 1608 1608 1608 1608 1608 1607 1607 1606 1606 1605 1604 1603 1603 1602 1601 1600 1599 1599 1598 1596 1595 1594 1593 1591 1590 1589 1588 1587 1586 1584 1583 1581 1579 1577 1575 1573 1571 1569 1568 1566 1564 1563 1561 1560 1558 1557 1556 1555
1600 1600 1600 1600 1601 1601 1601 1602 1602 1603 1603 1603 1603 1604 1605 1605 1605 1605 1605 1605 1605 1605 1606 1606 1606 1606 1606 1606 1607 1607 1607 1607 1607 1607 1607 1608 1608 1608 1607 1607 1607 1607 1606 1606 1606 1605 1604 1603 1602 1602 1601 1600 1600 1599 1598 1597 1595 1594 1593 1591 1590 1589 1588 1587 1586 1585 1584 1582 1580 1578 1575 1574 1572 1570 1568 1567 1565 1563 1562 1560 1559 1558 1556 1555 1554
1598 1599 1599 1599 1599 1599 1600 1600 1601 1601 1601 1602 1602 1602 1603 1604 1604 1604 1604 1604 1604 1604 1604 1605 1605 1605 1605 1605 1605 1605 1606 1606 1606 1606 1606 1606 1606 1607 1607 1606 1606 1606 1605 1605 1605 1604 1603 1603 1602 1601 1600 1600 1599 1598 1597 1596 1594 1593 1591 1590 1589 1588 1587 1585 1584 1583 1582 1581 1578 1576 1575 1573 1572 1569 1567 1565 1564 1562 1561 1560 1558 1557 1556 1555 1554
1596 1597 1597 1597 1598 1598 1598 1598 1599 1599 1599 1600 1600 1600 1601 1603 1603 1603 1603 1603 1603 1603 1604 1604 1604 1604 1604 1604 1604 1604 1604 1604 1605 1605 1605 1605 1606 1606 1606 1605 1605 1605 1604 1604 1604 1603 1603 1602 1601 1600 1600 1599 1598 1597 1596 1595 1593 1592 1591 1589 1588 1587 1586 1584 1582 1581 1580 1579 1577 1575 1574 1572 1570 1568 1566 1564 1563 1561 1560 1559 1557 1556 1555 1554 1553
1593 1594 1595 1596 1596 1596 1597 1597 1597 1598 1598 1598 1599 1599 1599 1600 1601 1601 1602 1602 1602 1603 1603 1603 1603 1603 1603 1603 1604 1604 1604 1603 1603 1604 1604 1604 1604 1604 1604 1604 1603 1603 1603 1603 1603 1602 1601 1601 1600 1599 1598 1597 1596 1595 1594 1593 1592 1591 1590 1589 1587 1585 1584 1583 1582 1580 1578 1577 1575 1574 1573 1570 1568 1566 1564 1562 1561 1560 1559 1557 1556 1555 1554 1553 1552
1591 1592 1593 1594 1594 1595 1595 1595 1596 1596 1596 1597 1597 1597 1598 1598 1599 1600 1600 1600 1601 1601 1601 1602 1601 1601 1602 1602 1603 1603 1603 1602 1602 1602 1602 1602 1602 1602 1602 1602 1602 1602 1601 1601 1601 1600 1600 1599 1598 1598 1597 1596 1595 1594 1593 1592 1591 1590 1589 1588 1586 1585 1583 1582 1580 1579 1577 1575 1574 1572 1570 1568 1566 1564 1562 1561 1560 1559 1558 1556 1555 1554 1553 1552 1551
1589 1589 1590 1592 1592 1593 1594 1594 1594 1594 1595 1595 1595 1596 1596 1597 1597 1598 1598 1599 1599 1600 1600 1600 1600 1600 1600 1601 1601 1601 1601 1601 1601 1601 1601 1600 1600 1600 1600 1600 1600 1600 1600 1599 1599 1599 1598 1598 1597 1597 1596 1595 1594 1593 1592 1591 1590 1589 1588 1587 1585 1583 1582 1580 1578 1576 1575 1574 1572 1570 1567 1566 1564 1562 1561 1560 1559 1558 1558 1556 1554 1553 1553 1552 1550
1586 1586 1588 1589 1590 1591 1592 1592 1592 1593 1593 1593 1593 1594 1595 1595 1596 1596 1596 1597 1598 1598 1598 1598 1599 1599 1599 1600 1600 1600 1600 1599 1599 1599 1599 1599 1599 1599 1599 1599 1599 1598 1598 1598 1598 1597 1597 1597 1596 1596 1595 1594 1593 1592 1591 1590 1589 1588 1586 1585 1583 1581 1580 1578 1576 1573 1573 1573 1571 1567 1565 1564 1563 1562 1560 1560 1559 1558 1557 1556 1554 1553 1552 1551 1549
1583 1584 1585 1586 1587 1589 1590 1590 1591 1591 1590 1590 1591 1592 1593 1594 1595 1595 1595 1596 1597 1597 1597 1597 1597 1598 1598 1598 1598 1599 1599 1598 1598 1598 1598 1597 1597 1598 1597 1597 1597 1597 1596 1596 1596 1596 1596 1595 1594 1594 1593 1592 1591 1590 1589 1588 1586 1585 1584 1582 1581 1580 1578 1576 1574 1571 1571 1571 1569 1566 1563 1562 1562 1561 1559 1559 1559 1558 1556 1555 1553 1552 1550 1549 1548
1581 1582 1583 1584 1585 1586 1587 1589 1589 1588 1587 1587 1589 1590 1591 1592 1593 1593 1593 1594 1595 1596 1596 1596 1596 1596 1596 1596 1596 1597 1597 1597 1597 1597 1597 1596 1596 1596 1596 1596 1596 1595 1595 1595 1594 1594 1594 1593 1592 1591 1591 1591 1589 1588 1587 1585 1584 1582 1581 1580 1579 1578 1576 1574 1572 1569 1568 1568 1567 1564 1562 1561 1561 1560 1558 1558 1557 1556 1555 1553 1552 1550 1549 1548 1547
1578 1579 1581 1582 1583 1583 1585 1586 1585 1583 1584 1585 1587 1588 1589 1590 1591 1591 1592 1592 1593 1593 1594 1594 1594 1594 1595 1594 1594 1595 1595 1594 1595 1596 1596 1595 1595 1595 1595 1594 1594 1594 1594 1593 1593 1592 1592 1591 1590 1589 1589 1589 1587 1586 1585 1584 1582 1581 1579 1578 1576 1575 1573 1571 1570 1567 1566 1566 1565 1563 1561 1560 1560 1559 1558 1557 1556 1555 1554 1552 1550 1549 1547 1546 1545
1574 1575 1578 1579 1580 1581 1583 1582 1581 1581 1583 1584 1585 1586 1587 1588 1589 1589 1590 1591 1591 1592 1592 1592 1593 1592 1592 1592 1592 1593 1592 1592 1593 1594 1594 1594 1594 1593 1593 1593 1593 1593 1593 1592 1592 1591 1591 1590 1588 1587 1586 1586 1585 1584 1583 1582 1580 1579 1577 1576 1574 1573 1571 1569 1567 1566 1565 1565 1565 1563 1561 1560 1559 1558 1556 1555 1555 1553 1552 1550 1548 1547 1546 1545 1543
1571 1572 1574 1577 1578 1579 1580 1580 1580 1581 1581 1582 1583 1584 1585 1586 1587 1588 1588 1589 1589 1589 1590 1590 1591 1590 1589 1590 1591 1591 1590 1590 1591 1592 1592 1592 1592 1592 1592 1591 1591 1591 1591 1591 1591 1590 1590 1588 1587 1585 1584 1583 1582 1581 1581 1579 1578 1576 1575 1573 1572 1571 1569 1567 1565 1564 1564 1564 1564 1562 1560 1558 1557 1556 1554 1553 1552 1551 1549 1549 1548 1546 1545 1543 1542
1568 1570 1572 1574 1576 1576 1578 1581 1580 1579 1580 1581 1581 1582 1583 1584 1585 1586 1586 1587 1587 1589 1590 1590 1589 1588 1588 1590 1591 1590 1589 1590 1590 1590 1591 1591 1591 1590 1590 1589 1589 1589 1589 1589 1588 1588 1587 1586 1584 1583 1582 1581 1580 1579 1578 1576 1575 1574 1572 1570 1570 1570 1569 1567 1565 1564 1563 1563 1562 1560 1558 1557 1556 1555 1553 1551 1550 1549 1548 1547 1547 1545 1543 1542 1541
1566 1568 1570 1572 1573 1573 1576 1579 1578 1577 1578 1579 1579 1581 1582 1582 1583 1584 1584 1585 1585 1587 1588 1588 1587 1587 1588 1589 1589 1589 1589 1588 1588 1589 1589 1589 1589 1589 1588 1587 1587 1587 1587 1586 1585 1585 1584 1583 1581 1580 1579 1578 1577 1576 1575 1574 1573 1572 1571 1569 1568 1568 1568 1566 1565 1563 1562 1561 1560 1559 1557 1556 1555 1553 1551 1549 1547 1547 1547 1545 1544 1543 1542 1540 1538
1564 1566 1568 1571 1572 1571 1572 1575 1575 1575 1576 1576 1577 1579 1580 1580 1581 1582 1583 1583 1583 1584 1585 1586 1586 1586 1586 1585 1585 1585 1586 1586 1586 1587 1587 1587 1587 1587 1586 1586 1585 1585 1584 1583 1582 1582 1581 1580 1579 1578 1577 1576 1575 1573 1572 1572 1571 1570 1569 1568 1567 1567 1566 1565 1564 1562 1560 1560 1559 1558 1556 1554 1553 1552 1551 1548 1545 1543 1543 1543 1542 1541 1540 1538 1537